FENGYUN 1C DEB, 29873

Orbit data source: Space-Track

FENGYUN 1C DEB, 29873 is space debris in SSO originally from a launch on Mon, 10 May 1999 UTC launched from the Taiyaun Space Center, China (TSC). Fengyun 1C debris stems from the Chinese weather satellite Fengyun-1C, which was intentionally destroyed by a Chinese anti-satellite missile in 2007. This event dramatically increased the amount of space debris, with thousands of trackable fragments posing hazards to satellites and human spaceflight. The Fengyun 1C debris cloud has become a focal point in discussions about space sustainability and the need for international regulations to prevent the creation of new debris.

Loading next visibility...
Identifier
29873, 1999-025FT
Orbit
SSO
Country
Flag of CNCN / PRC
Related business
Manufacturer
Unknown
Mission
Spacecraft
Bus & Motor
Unknown
Mass
Unknown
Launch date (UTC)
1999-05-10 (27 years ago)
Launch vehicle
Unknown
Launch site
Taiyaun Space Center, China (TSC)
Object type
Payload
Rocket body
Debris
Shape & HBR
Unknown shape, 0.1 m
Radar Cross Section
Small (<0.1 m²)

Expand to show TLE details & history
Last TLE update: 15 hours ago

TLE from 15 hours ago
0 FENGYUN 1C DEB
1 29873U 99025FT  26106.12768242 -.00000046  00000-0  11346-5 0  9992
2 29873  99.4302 334.7398 0092179 220.1783 292.3379 13.98289271980536
Epoch: 2026-04-16T03:03Z
TLE epoch observation values (Epoch: 2026-04-16T03:03:51.761Z)
Latitude
28.0899°
Longitude
-90.44665°
Altitude
878.159 km
Speed
7.428 km/s
True Right ascension
10h 39m 11s
True Declination
27° 56' 59"
Sunlit
Object was in full shadow at epoch
Visualization orbit readout
Latitude
Unknown
Longitude
Unknown
Altitude
Unknown
Speed
Unknown
Apparent Right ascension
Unknown
Apparent Declination
Unknown
Sunlit
N/A
Visualization observer readout
Local Sidereal Time
00:55:26
Azimuth
Unknown
Elevation
Unknown
Doppler factor
Unknown
Orbital elements
Apogee altitude
964.009 km
Perigee altitude
829.887 km
Semi-major axis
7,275.085 km
Eccentricity
0.00922
Inclination
99.4302°
RAAN
334.7398°
Arg. of periapsis
220.1783°
True anomaly
291.35662°
Mean anomaly
292.3379°
Eccentric anomaly
291.84769°
Mean motion
3.49773 °/min
Orbital period
102.92 mins
BSTAR
0.0000011346
Loading maneuver chart data...
Computing Atmospheric mass density...
Loading historical data...
Loading historical data...
Loading historical data...
Loading historical data...
Loading historical data...
Loading historical data...
Loading historical data...

Documentation

Showing up to 5 results
|